Simultaneous Nadir Overpasses (SNOs) Predictions

Prediction of SNOs between FY3D and AQUA Satellite Orbit:

Table of predicted SNOs for the next 14.0 days since TLE Epoch: 10/5/2019
Index Date (FY3D) Time (FY3D) Lat,Lon (FY3D) SZA (FY3D ) Date (AQUA) Time (AQUA) Lat,Lon (AQUA) SZA (AQUA ) Distance(km) Time Diff (sec)
1 10/05/2019 04:13:38 -69.32, 162.67 72.09 10/05/2019 04:13:55 -69.32, 162.70 72.12 1.29 17
2 10/05/2019 05:03:24 72.30, -25.05 104.91 10/05/2019 05:02:25 72.29, -25.06 104.98 0.36 59
3 10/07/2019 20:30:08 -69.12, -81.71 70.96 10/07/2019 20:30:28 -69.12, -81.68 71.00 1.45 20
4 10/07/2019 21:19:52 72.20, 90.66 105.95 10/07/2019 21:18:56 72.20, 90.65 106.02 0.19 56
5 10/10/2019 12:46:35 -69.02, 34.05 69.95 10/10/2019 12:46:58 -69.03, 34.07 69.98 1.21 23
6 10/10/2019 13:36:19 72.11,-153.64 106.99 10/10/2019 13:35:26 72.10,-153.65 107.05 0.36 53
7 10/13/2019 05:03:01 -69.03, 149.95 69.04 10/13/2019 05:03:27 -69.04, 149.96 69.08 0.56 26
8 10/13/2019 05:52:45 72.11, -37.74 107.91 10/13/2019 05:51:55 72.11, -37.76 107.98 0.92 50
9 10/15/2019 21:19:26 -69.10, -94.07 68.19 10/15/2019 21:19:55 -69.10, -94.08 68.22 0.48 29
10 10/15/2019 22:09:10 72.17, 78.26 108.78 10/15/2019 22:08:23 72.16, 78.21 108.84 1.86 47
11 10/18/2019 13:35:49 -69.26, 22.05 67.46 10/18/2019 13:36:21 -69.26, 22.01 67.48 1.91 32




NCC Satellite Simultaneous Nadir Overpasses (SNOs) Prediction Service
